sat.trackr.live / text

‹ back to catalog

LEMUR-2-AMANDA-SVANTE

NORAD 48269 · 2021-034B

PAYLOAD ACTIVE UNKNOWN

§ Identity

Operator
Country
US
Launch date
2021-04-29
Launch site
FRGUI
Launch vehicle
Mass (kg)
RCS (m²)

Purposes: earth_obs

External: N2YO · Heavens-Above · Gunter

§ Orbital elements

Epoch: 2026-05-25T03:05:10.463712Z

Period
93.95 min
Inclination
97.5766°
Eccentricity
0.0001287
Mean motion
15.32718194 rev/d
Perigee alt
466.8 km
Apogee alt
468.6 km
Semi-major
6,845.8 km
B*
9.7712e-4
RAAN
222.8332°
Arg perigee
27.1940°
Mean anomaly
332.9368°
Rev number
27,752

§ Raw data

LEMUR-2-AMANDA-SVANTE1 48269U 21034B   26145.12859333  .00030884  00000+0  97712-3 0  99922 48269  97.5766 222.8332 0001287  27.1940 332.9368 15.32718194277522

JSON: /api/v1/satellites/48269 · /tle

For live sub-satellite position, see the globe view (requires WebGL).

§ Visibility from observer

Set your observer location to see the next 7 days of passes ≥ 10°. The values pass through the URL so the page stays shareable.

No JS? Fill the form by hand. The geolocation button needs JavaScript.

§ Radio — SatNOGS DB

ModeDescriptionDownlinkUplink
FM Mode U - Transmitter 401.100 MHz

1 transmitter · refreshed weekly from db.satnogs.org